This demonstration page uses our WeatherBlox Daily Observations layout. Learn more.

Left ArrowRight Arrow

40.92945, -100.16068

Hourly Observations for July 23, 2019

Temp ( °F °C ) Dew Point ( °F °C ) Humidity (%) Winds ( mph kmh ) Pressure ( in mb ) Visibility ( mi km ) Precip ( " mm )
12:15 am 00:15 Clear 61 16 59 15.1 94 94 N N/A 30.30 1026 10 16 N/A
12:35 am 00:35 Clear 60 15.7 59 15 96 96 N N/A 30.30 1026 10 16 N/A
12:55 am 00:55 Clear 59 15.1 59 14.8 98 98 N N/A 30.30 1026 10 16 N/A
1:15 am 01:15 Clear 59 15.2 59 15 99 99 N N/A 30.29 1026 10 16 N/A
1:35 am 01:35 Clear 58 14.4 58 14.2 99 99 E 3 6 30.31 1026 7 11 N/A
1:55 am 01:55 Clear 57 14 57 14 100 100 E 3 6 30.30 1026 10 16 N/A
2:15 am 02:15 Clear 58 14.5 58 14.4 99 99 N N/A 30.30 1026 10 16 N/A
2:35 am 02:35 Clear 57 13.7 57 13.7 100 100 N N/A 30.31 1026 7 11 N/A
2:55 am 02:55 Clear 57 14 56 13.6 97 97 N N/A 30.30 1026 10 16 N/A
3:15 am 03:15 Clear 56 13.6 56 13.2 97 97 N N/A 30.31 1026 10 16 N/A
3:35 am 03:35 Clear 55 13 55 13 100 100 N N/A 30.31 1027 7 11 N/A
3:55 am 03:55 Clear with Mist and Fog 55 12.7 55 12.7 100 100 N N/A 30.32 1027 5 8 N/A
4:15 am 04:15 Clear with Mist and Fog 55 12.5 55 12.5 100 100 N N/A 30.31 1026 5 8 N/A
4:35 am 04:35 Clear with Mist and Fog 55 12.6 55 12.6 100 100 N N/A 30.32 1027 4 6 N/A
4:55 am 04:55 Clear with Mist and Fog 55 12.8 55 12.8 100 100 N N/A 30.31 1026 3 5 N/A
5:15 am 05:15 Clear with Mist and Fog 54 12 54 12 100 100 W 5 7 30.32 1027 5 8 N/A
5:35 am 05:35 Clear with Mist and Fog 54 12.2 54 12.2 100 100 NW 3 6 30.32 1027 5 8 N/A
5:55 am 05:55 Clear with Mist and Fog 54 12.1 54 12.1 100 100 N N/A 30.33 1027 3 4 N/A
6:15 am 06:15 Clear with Mist and Fog 53 11.9 53 11.9 100 100 N N/A 30.33 1027 3 4 N/A
6:35 am 06:35 Partly Cloudy with Mist and Fog 53 11.8 53 11.8 100 100 N N/A 30.33 1027 1 1 N/A
6:55 am 06:55 Mostly Cloudy with Fog 53 11.7 53 11.7 100 100 N N/A 30.35 1028 0 0 N/A
7:15 am 07:15 Partly Cloudy with Mist and Fog 54 12.2 54 12.2 100 100 N N/A 30.34 1027 2 3 N/A
7:35 am 07:35 Sunny with Mist and Fog 56 13.2 56 13.2 100 100 N N/A 30.33 1027 3 4 N/A
7:55 am 07:55 Sunny with Mist and Fog 57 14.1 57 14.1 100 100 N N/A 30.32 1027 4 6 N/A
8:15 am 08:15 Sunny with Mist and Fog 59 15.1 58 14.7 97 97 N N/A 30.31 1027 5 8 N/A
8:35 am 08:35 Sunny 61 16.2 59 15.1 93 93 N N/A 30.30 1026 10 16 N/A
8:55 am 08:55 Sunny 64 17.5 60 15.5 88 88 N N/A 30.29 1026 10 16 N/A
9:15 am 09:15 Sunny 65 18.6 61 15.9 84 84 N N/A 30.28 1026 10 16 N/A
9:35 am 09:35 Sunny 67 19.7 62 16.7 83 83 SSW 3 6 30.27 1025 10 16 N/A
9:55 am 09:55 Sunny 68 20.1 61 16 77 77 WSW 3 6 30.27 1025 10 16 N/A
10:15 am 10:15 Sunny 69 20.7 60 15.7 73 73 S 7 11 30.26 1025 10 16 N/A
10:35 am 10:35 Sunny 70 21 58 14.2 65 65 S 7 11 30.25 1024 10 16 N/A
10:55 am 10:55 Sunny 70 21.3 57 13.9 63 63 S 7 11 30.24 1024 10 16 N/A
11:15 am 11:15 Sunny 71 21.7 57 13.9 61 61 S 9 15 30.24 1024 10 16 N/A
11:35 am 11:35 Sunny 72 22 56 13.1 57 57 SSE 9 15 30.23 1024 10 16 N/A
11:55 am 11:55 Sunny 72 22 56 13.5 59 59 SSE 8 13 30.23 1024 10 16 N/A
12:15 pm 12:15 Sunny 72 22.1 55 12.9 56 56 SSE 5 7 30.22 1023 10 16 N/A
12:55 pm 12:55 Sunny 73 22.7 57 13.7 57 57 SSE 9 15 30.21 1023 10 16 N/A
1:15 pm 13:15 Sunny 73 22.8 56 13.3 55 55 SW 3 6 30.20 1023 10 16 N/A
1:35 pm 13:35 Sunny 74 23.2 58 14.4 58 58 S 8 13 30.19 1022 10 16 N/A
1:55 pm 13:55 Sunny 74 23.1 56 13.4 55 55 SSE 5 7 30.19 1023 10 16 N/A
2:15 pm 14:15 Sunny 74 23.5 57 14 55 55 SE 3 6 30.19 1022 10 16 N/A
2:35 pm 14:35 Sunny 74 23.6 57 13.9 55 55 S 5 7 30.18 1022 10 16 N/A
2:55 pm 14:55 Sunny 74 23.6 57 13.9 55 55 SSE 6 9 30.17 1022 10 16 N/A
3:15 pm 15:15 Sunny 75 23.8 57 13.9 54 54 SE 5 7 30.16 1021 10 16 N/A
3:35 pm 15:35 Sunny 75 24.1 59 14.9 57 57 S 6 9 30.16 1021 10 16 N/A
3:55 pm 15:55 Sunny 76 24.4 58 14.4 54 54 SSE 7 11 30.14 1021 10 16 N/A
4:15 pm 16:15 Sunny 76 24.5 59 15 56 56 N N/A 30.14 1021 10 16 N/A
4:35 pm 16:35 Sunny 76 24.3 59 14.8 55 55 ESE 6 9 30.12 1020 10 16 N/A
4:55 pm 16:55 Sunny 76 24.4 58 14.3 53 53 SE 3 6 30.12 1020 10 16 N/A
5:15 pm 17:15 Sunny 76 24.5 58 14.6 54 54 SE 3 6 30.12 1020 10 16 N/A
5:35 pm 17:35 Sunny 76 24.6 60 15.4 57 57 SSE 6 9 30.12 1020 10 16 N/A
5:55 pm 17:55 Sunny 76 24.6 61 16 59 59 SSE 7 11 30.11 1020 10 16 N/A
6:15 pm 18:15 Sunny 76 24.2 60 15.8 60 60 SE 9 15 30.12 1020 10 16 N/A
6:35 pm 18:35 Sunny 76 24.2 60 15.6 59 59 SSE 7 11 30.11 1019 10 16 N/A
6:55 pm 18:55 Sunny 75 24.1 59 15.2 58 58 SSE 8 13 30.10 1019 10 16 N/A
7:15 pm 19:15 Sunny 75 23.7 60 15.5 60 60 SSE 9 15 30.10 1019 10 16 N/A
7:35 pm 19:35 Sunny 74 23.5 60 15.4 61 61 SE 6 9 30.10 1019 10 16 N/A
7:55 pm 19:55 Sunny 73 23 60 15.6 63 63 SE 8 13 30.11 1019 10 16 N/A
8:15 pm 20:15 Sunny 73 22.6 60 15.7 65 65 SE 8 13 30.11 1020 10 16 N/A
8:35 pm 20:35 Sunny 72 22 60 15.6 67 67 ESE 9 15 30.11 1020 10 16 N/A
8:55 pm 20:55 Sunny 70 21.2 61 16.1 73 73 ESE 8 13 30.13 1020 10 16 N/A
9:15 pm 21:15 Partly Cloudy 69 20.6 61 16 75 75 ESE 7 11 30.14 1021 10 16 N/A
9:35 pm 21:35 Partly Cloudy 68 20.2 60 15.7 75 75 ESE 6 9 30.14 1021 10 16 N/A
9:55 pm 21:55 Partly Cloudy 68 20.2 60 15.8 76 76 ESE 7 11 30.15 1021 10 16 N/A
10:15 pm 22:15 Partly Cloudy 68 20 60 15.7 76 76 ESE 7 11 30.14 1021 10 16 N/A
10:35 pm 22:35 Clear 67 19.6 60 15.6 78 78 SE 9 15 30.14 1021 10 16 N/A
10:55 pm 22:55 Clear 67 19.3 61 15.9 81 81 ESE 9 15 30.15 1021 10 16 N/A
11:15 pm 23:15 Partly Cloudy 66 19 60 15.7 81 81 SE 8 13 30.16 1021 10 16 N/A
11:35 pm 23:35 Clear 65 18.4 60 15.7 84 84 SE 10 17 30.17 1022 10 16 N/A
11:55 pm 23:55 Clear 65 18.2 59 15.2 83 83 SE 10 17 30.17 1022 10 16 N/A

Powered by AerisWeather